Regional Weather Roundup
Issued by NWS Huntsville, AL

Home | Current Version | Previous Version | Text Only | Print | Product List | Glossary On
Versions: 1 2 3 4 5 6 7 8 9 10 11 12 13 14 15 16 17 18 19 20 21 22 23 24 25 26 27 28 29 30 31 32 33 34 35 36 37 38 39 40 41 42 43 44 45 46 47 48 49 50
000
ASUS44 KHUN 211710
RWRHUN

WEATHER ROUNDUP FOR THE TENNESSEE VALLEY
NATIONAL WEATHER SERVICE HUNTSVILLE AL
1100 AM CST FRI NOV 21 2014

ALZ001>004-211800-
NORTHWEST ALABAMA

CITY           SKY/WX    TMP DP  RH WIND       PRES   REMARKS
COURTLAND HCN    N/A     52 N/A N/A E7          N/A
RUSSELLVILLE     N/A     54 N/A N/A MISG        N/A
SHOALS AIRPORT SUNNY     52  26  36 SE12      30.42F
SHOALS TVA RES   N/A     50 N/A N/A MISG        N/A
$$

ALZ005>007-016-211800-
NORTH CENTRAL ALABAMA

CITY           SKY/WX    TMP DP  RH WIND       PRES   REMARKS
CULLMAN AG STN   N/A     54 N/A N/A E7          N/A
DECATUR AP     SUNNY     53  31  42 VRB7      30.42S
HUNTSVILLE AP  MOSUNNY   54  31  41 E5        30.41F
HUN NWS/UAH      N/A     56  26  31 E5          N/A
MERIDIANVILLE  SUNNY     54  21  28 NE5       30.41F
REDSTONE ARSN  SUNNY     54  29  37 VRB3      30.40F
$$

ALZ008>010-211800-
NORTHEAST ALABAMA

CITY           SKY/WX    TMP DP  RH WIND       PRES   REMARKS
FORT PAYNE     NOT AVBL
SCOTTSBORO AP  SUNNY     50  27  40 NE6       30.43F
SCOTTSBORO HCN   N/A     48 N/A N/A MISG        N/A
VALLEY HEAD      N/A     48 N/A N/A MISG        N/A
$$

TNZ076-096-097-211800-
SOUTHEASTERN MIDDLE TENNESSEE

CITY           SKY/WX    TMP DP  RH WIND       PRES   REMARKS
TULLAHOMA      SUNNY     48  16  27 CALM      30.42F
WINCHESTER     SUNNY     52  21  30 CALM      30.42S
$$

...SURROUNDING SITES...

CITY           SKY/WX    TMP DP  RH WIND       PRES   REMARKS
ATLANTA        MOSUNNY   59  28  30 VRB6      30.40F
ANNISTON       SUNNY     58  30  34 NE7       30.41F
BIRMINGHAM     MOSUNNY   61  32  33 E7        30.41F
CHATTANOOGA    MOSUNNY   49  22  34 NE7       30.45F
CORINTH        CLOUDY    54  30  40 E8        30.37F
DALTON         NOT AVBL
GADSDEN        SUNNY     54  28  37 E8        30.43S
GOLDEN TRNGL   PTSUNNY   61  46  59 SE7       30.36F
HALEYVILLE     FAIR      56  34  43 SE9       30.40F
JACKSON TN     CLOUDY    48  28  46 E10       30.39S
LEWISBURG      FAIR      48  22  36 NE8       30.43S
MEMPHIS        CLOUDY    46  39  76 E8        30.34F
MURFREESBORO   FAIR      46  23  40 CALM      30.44F
NASHVILLE      MOSUNNY   45  22  40 E8        30.45F
OXFORD MS      FAIR      54  39  58 SE8       30.36F
ROME           SUNNY     53  26  35 VRB3      30.42F
SAVANNAH       CLOUDY    52  28  40 SE7       30.40S
TUPELO         CLOUDY    55  36  48 SE8       30.37F
TUSCALOOSA     SUNNY     61  45  55 CALM      30.38F
$$

...GULF COAST WEATHER...

CITY           SKY/WX    TMP DP  RH WIND       PRES   REMARKS
GULFPORT       SUNNY     67  49  52 E14       30.32F
PASCAGOULA     SUNNY     68  48  48 E12       30.33F
MOBILE         SUNNY     66  45  46 E12       30.34F
PENSACOLA      SUNNY     65  45  48 E12G20    30.34F
DESTIN         SUNNY     66  47  50 E8        30.34F
PANAMA CITY    SUNNY     66  47  50 NE10      30.34F
APPALACHICOLA  SUNNY     69  42  37 NE14      30.33F
$$




USA.gov is the U.S. government's official web portal to all federal, state and local government web resources and services.